Hoolehua, HI

9:13 PM HST on February 21, 2017 (GMT -1000)
Molokai

Weather History for PHMK - February, 2013

Change the Weather History Date:

Thursday, February 28, 2013

  Actual Average Record
Temperature  
Mean Temperature 72 °F -  
Max Temperature 77 °F 77 °F 84 °F (1958)
Min Temperature 66 °F 63 °F 57 °F (1999)
Cooling Degree Days 6    
Growing Degree Days 22 (Base 50)    
Moisture  
Dew Point 57 °F    
Average Humidity 61    
Maximum Humidity 71    
Minimum Humidity 45    
Precipitation  
Precipitation 0.00 in - - ()
Sea Level Pressure  
Sea Level Pressure 30.18 in    
Wind  
Wind Speed 13 mph (NE)    
Max Wind Speed 24 mph    
Max Gust Speed 34 mph    
Visibility 10 miles    
Events      
Averages and records for this station are not official NWS values.
T = Trace of Precipitation, MM = Missing Value Source: NWS Daily Summary

Daily Weather History Graph

Daily Weather History Graph

Search for Another Location

Airport or City:

Trip Planner

Search our weather history database for the weather conditions in past years. The results will help you decide how hot, cold, wet, or windy it might be!

Date:

Astronomy

Feb. 28, 2013 Rise Set
Actual Time 6:49 AM HST 6:32 PM HST
Civil Twilight 6:26 AM HST 6:54 PM HST
Nautical Twilight 6:01 AM HST 7:20 PM HST
Astronomical Twilight 5:35 AM HST 7:46 PM HST
Moon 9:36 PM HST (2/28) 8:36 AM HST (2/28)
Length of Visible Light 12h 28m
Length of Day
11h 43m
Waning Gibbous, 89% of the Moon is Illuminated
Feb 28
Waning Gibbous
Mar 4
Last Quarter
Mar 11
New
Mar 19
First Quarter
Mar 26
Full

Hourly Weather History & Observations

Time (HST) Temp. Dew Point Humidity Pressure Visibility Wind Dir Wind Speed Gust Speed Precip Events Conditions
12:54 AM 66.9 °F 57.0 °F 70% 30.16 in 10.0 mi NE 8.1 mph - N/A   Clear
1:54 AM 66.9 °F 54.0 °F 63% 30.14 in 10.0 mi NE 11.5 mph 18.4 mph N/A   Clear
2:54 AM 66.0 °F 54.0 °F 65% 30.13 in 10.0 mi NNE 8.1 mph - N/A   Clear
3:54 AM 68.0 °F 55.0 °F 63% 30.12 in 10.0 mi NNE 10.4 mph - N/A   Clear
4:54 AM 68.0 °F 57.0 °F 68% 30.14 in 10.0 mi NNE 11.5 mph - N/A   Clear
5:54 AM 68.0 °F 57.9 °F 70% 30.16 in 10.0 mi NE 11.5 mph 20.7 mph N/A   Clear
6:54 AM 68.0 °F 55.0 °F 63% 30.18 in 10.0 mi ENE 13.8 mph 20.7 mph N/A   Partly Cloudy
7:54 AM 70.0 °F 55.0 °F 59% 30.20 in 10.0 mi NE 16.1 mph 25.3 mph N/A   Partly Cloudy
8:54 AM 73.0 °F 54.0 °F 51% 30.21 in 10.0 mi ENE 17.3 mph 26.5 mph N/A   Partly Cloudy
9:54 AM 73.9 °F 53.1 °F 48% 30.22 in 10.0 mi NE 16.1 mph 28.8 mph N/A   Clear
10:05 AM 75.2 °F 53.6 °F 47% 30.21 in 10.0 mi NE 15.0 mph 25.3 mph N/A   Scattered Clouds
10:54 AM 75.9 °F 53.1 °F 45% 30.21 in 10.0 mi ENE 19.6 mph 31.1 mph N/A   Clear
11:54 AM 75.9 °F 55.0 °F 48% 30.19 in 10.0 mi NE 15.0 mph 31.1 mph N/A   Partly Cloudy
12:54 PM 75.9 °F 57.9 °F 54% 30.17 in 10.0 mi NE 24.2 mph 32.2 mph N/A   Partly Cloudy
1:54 PM 77.0 °F 57.0 °F 50% 30.14 in 10.0 mi NE 18.4 mph 34.5 mph N/A   Partly Cloudy
2:54 PM 75.0 °F 55.0 °F 50% 30.13 in 10.0 mi NE 23.0 mph 32.2 mph N/A   Clear
3:54 PM 75.0 °F 54.0 °F 48% 30.13 in 10.0 mi NE 21.9 mph 32.2 mph N/A   Clear
4:54 PM 73.9 °F 55.9 °F 53% 30.14 in 10.0 mi NE 16.1 mph 28.8 mph N/A   Clear
5:54 PM 71.1 °F 59.0 °F 66% 30.15 in 10.0 mi NE 15.0 mph 23.0 mph N/A   Partly Cloudy
6:02 PM 71.6 °F 59.0 °F 64% 30.14 in 10.0 mi NE 16.1 mph 25.3 mph N/A   Partly Cloudy
6:54 PM 69.1 °F 59.0 °F 70% 30.17 in 10.0 mi NE 11.5 mph 21.9 mph N/A   Partly Cloudy
7:54 PM 69.1 °F 59.0 °F 70% 30.20 in 10.0 mi NNE 11.5 mph 21.9 mph N/A   Partly Cloudy
8:54 PM 70.0 °F 60.1 °F 71% 30.22 in 10.0 mi NE 12.7 mph 25.3 mph N/A   Mostly Cloudy
9:24 PM 69.8 °F 57.2 °F 64% 30.22 in 10.0 mi NE 13.8 mph 24.2 mph N/A   Scattered Clouds
9:40 PM 69.8 °F 59.0 °F 68% 30.22 in 10.0 mi NE 13.8 mph 29.9 mph N/A   Mostly Cloudy
9:50 PM 69.8 °F 57.2 °F 64% 30.23 in 10.0 mi NE 17.3 mph 31.1 mph N/A   Mostly Cloudy
9:54 PM 69.1 °F 57.9 °F 68% 30.23 in 10.0 mi NNE 13.8 mph 31.1 mph N/A   Mostly Cloudy
10:54 PM 69.1 °F 59.0 °F 70% 30.22 in 10.0 mi NE 17.3 mph 24.2 mph N/A   Mostly Cloudy
11:54 PM 69.1 °F 59.0 °F 70% 30.21 in 10.0 mi NE 15.0 mph 26.5 mph N/A   Mostly Cloudy